| time (UTC) | temp C | wind direction | speed KPH | gust KPH | rain 1hr cm | rain 24hr cm | rain mn cm | humidity % | barometer mb |
| 20260504081547 | 8 | 0 | 0.0 | 3.2 | 0.00 | 0.00 | 0.00 | 70 | 1015.7 |
| 20260504050105 | 8 | 0 | 0.0 | 0.0 | 0.00 | 0.00 | 0.00 | 70 | 1015.9 |
| 20260504044543 | 8 | 0 | 0.0 | 0.0 | 0.00 | 0.00 | 0.00 | 69 | 1016.0 |
| 20260504043044 | 8 | 0 | 0.0 | 0.0 | 0.00 | 0.00 | 0.00 | 69 | 1015.9 |
| 20260504041536 | 8 | 0 | 0.0 | 0.0 | 0.00 | 0.00 | 0.00 | 68 | 1015.9 |
| 20260504034552 | 8 | 0 | 0.0 | 0.0 | 0.00 | 0.00 | 0.00 | 69 | 1015.9 |
| 20260504033043 | 8 | 0 | 0.0 | 0.0 | 0.00 | 0.00 | 0.00 | 68 | 1015.7 |
| 20260504031540 | 8 | 0 | 0.0 | 0.0 | 0.00 | 0.00 | 0.00 | 67 | 1015.6 |
| 20260504030049 | 8 | 0 | 0.0 | 0.0 | 0.00 | 0.00 | 0.00 | 68 | 1015.6 |
| 20260504024546 | 8 | 0 | 0.0 | 0.0 | 0.00 | 0.00 | 0.00 | 68 | 1015.6 |
| 20260504023040 | 7 | 0 | 0.0 | 0.0 | 0.00 | 0.00 | 0.00 | 70 | 1015.6 |
| 20260504021547 | 7 | 0 | 0.0 | 1.6 | 0.00 | 0.00 | 0.00 | 65 | 1015.5 |
| 20260504020059 | 7 | 0 | 0.0 | 0.0 | 0.00 | 0.00 | 0.00 | 66 | 1015.1 |
| 20260504014553 | 7 | 0 | 0.0 | 0.0 | 0.00 | 0.00 | 0.00 | 65 | 1015.0 |
| 20260504013048 | 8 | 0 | 0.0 | 0.0 | 0.00 | 0.00 | 0.00 | 64 | 1015.0 |
| 20260504011546 | 8 | 0 | 0.0 | 0.0 | 0.00 | 0.00 | 0.00 | 63 | 1014.9 |
| 20260504010041 | 8 | 0 | 0.0 | 0.0 | 0.00 | 0.00 | 0.00 | 62 | 1014.9 |
| 20260504004535 | 9 | 0 | 0.0 | 0.0 | 0.00 | 0.00 | 0.00 | 59 | 1015.0 |
| 20260504003047 | 10 | 0 | 0.0 | 0.0 | 0.00 | 0.00 | 0.00 | 56 | 1014.9 |
| 20260504001542 | 10 | 0 | 0.0 | 0.0 | 0.00 | 0.00 | 0.00 | 54 | 1014.8 |
| 20260504000047 | 11 | 0 | 0.0 | 0.0 | 0.00 | 0.00 | 0.00 | 51 | 1014.8 |
| 20260503234539 | 12 | 0 | 0.0 | 1.6 | 0.00 | 0.00 | 0.00 | 46 | 1014.6 |
| 20260503233037 | 13 | 223 | 0.0 | 3.2 | 0.00 | 0.00 | 0.00 | 43 | 1014.6 |
| 20260503231545 | 15 | 308 | 0.0 | 3.2 | 0.00 | 0.00 | 0.00 | 40 | 1014.6 |
| 20260503230049 | 16 | 0 | 1.6 | 8.0 | 0.00 | 0.00 | 0.00 | 35 | 1014.5 |
| 20260503224542 | 16 | 15 | 0.0 | 8.0 | 0.00 | 0.00 | 0.00 | 34 | 1014.5 |
| 20260503223048 | 17 | 63 | 1.6 | 9.7 | 0.00 | 0.00 | 0.00 | 31 | 1014.6 |
| 20260503221543 | 17 | 323 | 0.0 | 4.8 | 0.00 | 0.00 | 0.00 | 31 | 1014.6 |
| 20260503220044 | 17 | 0 | 1.6 | 6.4 | 0.00 | 0.00 | 0.00 | 32 | 1014.7 |
| 20260503214551 | 17 | 0 | 0.0 | 6.4 | 0.00 | 0.00 | 0.00 | 30 | 1014.8 |
| 20260503213059 | 17 | 96 | 0.0 | 8.0 | 0.00 | 0.00 | 0.00 | 30 | 1014.8 |
| 20260503211603 | 17 | 224 | 3.2 | 12.9 | 0.00 | 0.00 | 0.00 | 30 | 1014.9 |
| 20260503210045 | 17 | 250 | 3.2 | 9.7 | 0.00 | 0.00 | 0.00 | 31 | 1014.9 |
| 20260503204540 | 17 | 327 | 3.2 | 12.9 | 0.00 | 0.00 | 0.00 | 32 | 1015.1 |
| 20260503203049 | 17 | 87 | 3.2 | 12.9 | 0.00 | 0.00 | 0.00 | 29 | 1015.2 |
| 20260503201546 | 17 | 18 | 1.6 | 8.0 | 0.00 | 0.00 | 0.00 | 28 | 1015.5 |
| 20260503200055 | 17 | 294 | 1.6 | 12.9 | 0.00 | 0.00 | 0.00 | 29 | 1015.7 |
| 20260503194554 | 17 | 204 | 1.6 | 9.7 | 0.00 | 0.00 | 0.00 | 32 | 1015.9 |
| 20260503193101 | 17 | 0 | 1.6 | 9.7 | 0.00 | 0.00 | 0.00 | 33 | 1016.1 |
| 20260503191543 | 17 | 260 | 3.2 | 12.9 | 0.00 | 0.00 | 0.00 | 34 | 1016.3 |
| 20260503190050 | 17 | 319 | 1.6 | 8.0 | 0.00 | 0.00 | 0.00 | 33 | 1016.6 |
| 20260503184558 | 16 | 62 | 3.2 | 11.3 | 0.00 | 0.00 | 0.00 | 33 | 1016.7 |
| 20260503183043 | 16 | 338 | 4.8 | 16.1 | 0.00 | 0.00 | 0.00 | 32 | 1017.0 |
| 20260503181608 | 15 | 0 | 3.2 | 9.7 | 0.00 | 0.00 | 0.00 | 33 | 1017.0 |
| 20260503180106 | 16 | 315 | 6.4 | 16.1 | 0.00 | 0.00 | 0.00 | 30 | 1017.3 |
| 20260503174554 | 16 | 310 | 4.8 | 12.9 | 0.00 | 0.00 | 0.00 | 31 | 1017.4 |
| 20260503173053 | 15 | 329 | 6.4 | 16.1 | 0.00 | 0.00 | 0.00 | 33 | 1017.7 |
| 20260503171551 | 15 | 313 | 3.2 | 16.1 | 0.00 | 0.00 | 0.00 | 32 | 1017.7 |